Location: Moscow
(38.8570°N, 84.2291°W)
Time: 13:52:41
(UTC+00:00)

DNEPR-1 R/B - Visible Passes

Search period start: 14 February 2026 00:00
Search period end: 24 February 2026 00:00
Orbit: 586 x 1327 km, 64.6° (Epoch: 13 February)

Date Brightness Start Highest point End Pass type
(mag) Time Alt. Az. Time Alt. Az. Time Alt. Az.
14 Feb 4.1 01:01:07 10° NNW 01:06:12 63° ENE 01:07:26 50° ESE visible
14 Feb 6.6 02:49:28 10° WNW 02:51:45 17° W 02:51:45 17° W visible
14 Feb 5.5 23:34:49 10° N 23:38:20 19° NE 23:42:16 10° E visible
15 Feb 4.3 01:20:44 10° NW 01:25:56 72° WSW 01:28:08 40° SSE visible
15 Feb 4.9 23:53:47 10° NNW 23:58:19 32° NE 00:03:39 10° ESE visible
16 Feb 5.5 01:40:41 10° NW 01:45:38 38° WSW 01:49:22 20° S visible
17 Feb 4.2 00:13:05 10° NNW 00:18:09 58° ENE 00:24:17 10° SE visible
17 Feb 6.5 02:01:12 10° WNW 02:05:15 21° WSW 02:09:51 10° SSW visible
18 Feb 4.3 00:32:40 10° NW 00:37:54 79° WSW 00:44:17 10° SSE visible
18 Feb 7.2 02:24:10 10° WSW 02:24:47 10° WSW 02:25:25 10° WSW visible
19 Feb 5.5 00:52:34 10° NW 00:57:36 42° WSW 01:03:38 10° S visible
20 Feb 6.6 01:12:58 10° WNW 01:17:14 23° WSW 01:22:07 10° SSW visible
20 Feb 4.4 23:44:37 10° NNW 23:49:52 85° WSW 23:56:17 10° SSE visible
21 Feb 7.3 01:34:52 10° W 01:36:47 12° WSW 01:38:48 10° SW visible
22 Feb 5.5 00:04:27 10° NW 00:09:33 46° WSW 00:15:43 10° S visible
23 Feb 6.7 00:24:45 10° WNW 00:29:13 25° WSW 00:34:21 10° SSW visible
